GW3170 Weather Reports


time (UTC)temp
F
wind
direction
speed
knots
gust
knots
rain 1hr
in
rain 24hr
in
rain mn
in
humidity
%
barometer
mb
20260508055554 41 0 0.0 3.5 0.01 0.01 0.01 82 1011.3
20260508055054 42 309 1.7 9.6 0.01 0.01 0.01 81 1011.4
20260508054626 42 333 2.6 9.6 0.01 0.01 0.01 80 1011.5
20260508054104 43 292 2.6 5.2 0.00 0.00 0.00 79 1011.5
20260508053554 43 323 0.9 4.3 0.00 0.00 0.00 77 1011.4
20260508053056 43 335 0.9 3.5 0.00 0.00 0.00 76 1011.3
20260508052603 43 331 0.9 4.3 0.00 0.00 0.00 75 1011.2
20260508052057 44 0 0.9 4.3 0.00 0.00 0.00 75 1011.0
20260508051558 44 0 0.9 4.3 0.00 0.00 0.00 74 1011.1
20260508051055 44 288 0.9 5.2 0.00 0.00 0.00 73 1011.0
20260508050555 44 0 1.7 5.2 0.00 0.00 0.00 72 1010.9
20260508050058 44 298 2.6 5.2 0.00 0.00 0.00 72 1011.0
20260508045554 44 311 1.7 3.5 0.00 0.00 0.00 72 1010.8
20260508045054 44 286 1.7 3.5 0.00 0.00 0.00 72 1010.9
20260508044555 44 300 0.0 4.3 0.00 0.00 0.00 73 1010.9
20260508044055 44 283 1.7 4.3 0.00 0.00 0.00 73 1011.0
20260508043556 44 293 0.9 2.6 0.00 0.00 0.00 72 1010.9
20260508043058 44 248 0.9 2.6 0.00 0.00 0.00 72 1010.9
20260508042554 44 275 0.9 3.5 0.00 0.00 0.00 71 1010.8
20260508042054 44 289 0.0 3.5 0.00 0.00 0.00 73 1010.9
20260508041558 43 295 0.0 3.5 0.00 0.00 0.00 72 1010.9
20260508041054 43 286 0.0 1.7 0.00 0.00 0.00 73 1010.9
20260508040555 43 275 0.0 1.7 0.00 0.00 0.00 74 1010.9
20260508040104 43 0 0.0 1.7 0.00 0.00 0.00 74 1010.9
20260508035558 42 0 0.0 1.7 0.00 0.00 0.00 75 1010.8
20260508035054 42 0 0.9 1.7 0.00 0.00 0.00 77 1010.9
20260508034555 41 0 0.0 0.0 0.00 0.00 0.00 79 1010.9
20260508034053 41 0 0.0 0.0 0.00 0.00 0.00 81 1010.9
20260508033553 40 0 0.0 0.0 0.00 0.00 0.00 83 1010.8
20260508033058 40 0 0.0 0.0 0.00 0.00 0.00 84 1010.8
20260508032556 40 0 0.0 0.0 0.00 0.00 0.00 83 1010.7
20260508032054 39 0 0.0 0.0 0.00 0.00 0.00 81 1010.6
20260508031603 39 0 0.0 0.0 0.00 0.00 0.00 81 1010.6
20260508031054 40 0 0.0 0.0 0.00 0.00 0.00 81 1010.6
20260508030554 40 0 0.0 0.0 0.00 0.00 0.00 80 1010.6
20260508030104 40 0 0.0 0.0 0.00 0.00 0.00 80 1010.5
20260508025553 40 0 0.0 0.0 0.00 0.00 0.00 79 1010.6
20260508025054 40 0 0.0 0.0 0.00 0.00 0.00 78 1010.6
20260508024556 40 0 0.0 0.0 0.00 0.00 0.00 77 1010.6
20260508024056 41 0 0.0 0.0 0.00 0.00 0.00 76 1010.5
20260508023555 41 0 0.0 0.0 0.00 0.00 0.00 76 1010.5
20260508023133 41 0 0.0 0.0 0.00 0.00 0.00 76 1010.4
20260508022553 41 0 0.0 0.0 0.00 0.00 0.00 75 1010.5
20260508022055 42 0 0.0 0.0 0.00 0.00 0.00 74 1010.4
20260508021608 42 0 0.0 0.0 0.00 0.00 0.00 74 1010.4
20260508021054 43 0 0.0 0.0 0.00 0.00 0.00 73 1010.5
20260508020554 43 0 0.0 0.0 0.00 0.00 0.00 72 1010.5
20260508020055 43 0 0.0 0.0 0.00 0.00 0.00 72 1010.5
20260508015554 44 0 0.0 0.0 0.00 0.00 0.00 71 1010.6
20260508015054 44 0 0.0 0.0 0.00 0.00 0.00 71 1010.6
20260508014557 44 0 0.0 0.0 0.00 0.00 0.00 69 1010.6
20260508014054 44 0 0.0 0.0 0.00 0.00 0.00 68 1010.6
20260508013554 44 0 0.0 0.0 0.00 0.00 0.00 67 1010.7
20260508013058 44 0 0.0 0.0 0.00 0.00 0.00 67 1010.7
20260508012554 45 0 0.0 0.0 0.00 0.00 0.00 67 1010.7
20260508012056 45 0 0.0 0.0 0.00 0.00 0.00 65 1010.7
20260508011606 45 0 0.0 0.0 0.00 0.00 0.00 65 1010.7
20260508011054 45 0 0.0 0.0 0.00 0.00 0.00 64 1010.6
20260508010554 46 0 0.0 0.0 0.00 0.00 0.00 62 1010.6
20260508010054 46 0 0.0 0.0 0.00 0.00 0.00 64 1010.6
20260508005558 47 0 0.0 0.0 0.00 0.00 0.00 61 1010.5
20260508005100 47 0 0.0 0.0 0.00 0.00 0.00 60 1010.4
20260508004554 47 0 0.0 0.0 0.00 0.00 0.00 58 1010.2
20260508004055 47 0 0.0 0.0 0.00 0.00 0.00 55 1010.1
20260508003554 47 0 0.0 0.9 0.00 0.00 0.00 53 1010.2
20260508003053 47 314 0.0 0.9 0.00 0.00 0.00 52 1010.1
20260508002556 48 0 0.0 0.0 0.00 0.00 0.00 52 1010.2
20260508002056 48 0 0.0 0.0 0.00 0.00 0.00 54 1010.1
20260508001556 48 0 0.0 0.0 0.00 0.00 0.00 55 1010.0
20260508001056 48 0 0.0 2.6 0.00 0.00 0.00 52 1010.0
20260508000554 48 0 0.0 2.6 0.00 0.00 0.00 53 1010.0
20260508000113 48 309 0.0 2.6 0.00 0.00 0.00 52 1010.0
20260507235558 48 0 0.0 0.9 0.00 0.00 0.00 51 1010.0
20260507235055 48 0 0.0 1.7 0.00 0.00 0.00 52 1010.0
20260507234554 49 0 0.0 1.7 0.00 0.00 0.00 49 1010.0
20260507234055 49 315 0.0 1.7 0.00 0.00 0.00 50 1010.1
20260507233554 49 0 0.0 0.9 0.00 0.00 0.00 51 1010.1
20260507233056 49 0 0.0 2.6 0.00 0.00 0.00 49 1009.9
20260507232556 49 0 0.0 2.6 0.00 0.00 0.00 49 1009.8
20260507232056 49 293 0.0 1.7 0.00 0.00 0.00 49 1009.8
20260507231604 49 0 0.0 1.7 0.00 0.00 0.00 49 1009.9
20260507231059 50 337 0.0 3.5 0.00 0.00 0.00 47 1009.8
20260507230555 50 0 0.0 3.5 0.00 0.00 0.00 46 1009.8
20260507225556 50 334 0.0 4.3 0.00 0.00 0.00 46 1009.8
20260507225101 50 324 0.0 4.3 0.00 0.00 0.00 45 1009.8
20260507224556 50 316 0.9 3.5 0.00 0.00 0.00 44 1009.9
20260507224057 51 333 0.0 4.3 0.00 0.00 0.00 46 1009.9
20260507223559 51 332 1.7 4.3 0.00 0.00 0.00 44 1009.9
20260507223055 51 330 1.7 4.3 0.00 0.00 0.00 43 1010.0
20260507222557 51 309 0.9 4.3 0.00 0.00 0.00 44 1010.0
20260507222056 51 0 0.0 1.7 0.00 0.00 0.00 43 1010.0
20260507221600 51 342 0.0 3.5 0.00 0.00 0.00 44 1009.9
20260507221057 51 344 0.9 3.5 0.00 0.00 0.00 42 1009.9
20260507220558 52 319 0.9 6.1 0.00 0.00 0.00 42 1009.9
20260507220054 52 320 1.7 6.1 0.00 0.00 0.00 42 1010.0
20260507215555 53 349 0.9 4.3 0.00 0.00 0.00 40 1010.0
20260507215055 54 343 0.9 4.3 0.00 0.00 0.00 43 1009.9
20260507214555 54 14 1.7 3.5 0.00 0.00 0.00 41 1009.9
20260507214059 54 359 0.9 7.0 0.00 0.00 0.00 42 1009.9
20260507213556 54 347 1.7 7.0 0.00 0.00 0.00 40 1009.9
20260507213054 53 339 2.6 7.0 0.00 0.00 0.00 44 1009.9
20260507212554 53 313 3.5 7.0 0.00 0.00 0.00 39 1009.9
20260507212053 53 330 1.7 7.8 0.00 0.00 0.00 41 1009.9
20260507211600 53 338 2.6 7.8 0.00 0.00 0.00 45 1009.9
20260507211056 53 358 1.7 7.8 0.00 0.00 0.00 44 1009.9
20260507210557 53 345 1.7 7.8 0.00 0.00 0.00 46 1009.9
20260507210058 53 12 1.7 7.8 0.00 0.00 0.00 43 1009.9
20260507205557 53 342 2.6 7.8 0.00 0.00 0.00 45 1009.9
20260507205054 53 312 2.6 7.8 0.00 0.00 0.00 48 1009.9
20260507204557 54 292 4.3 7.8 0.00 0.00 0.00 45 1009.9
20260507204054 53 328 2.6 5.2 0.00 0.00 0.00 46 1009.9
20260507203601 53 344 1.7 4.3 0.00 0.00 0.00 47 1009.9
20260507203102 53 354 2.6 4.3 0.00 0.00 0.00 46 1009.9
20260507202557 53 32 1.7 5.2 0.00 0.00 0.00 48 1009.9
20260507202056 53 0 0.9 5.2 0.00 0.00 0.00 45 1009.9
20260507201559 54 338 1.7 5.2 0.00 0.00 0.00 46 1009.9
20260507201057 55 294 2.6 5.2 0.00 0.00 0.00 47 1009.9
20260507200557 55 350 0.0 7.8 0.00 0.00 0.00 46 1010.1
20260507200103 54 333 0.9 7.8 0.00 0.00 0.00 48 1010.1
20260507195557 54 329 2.6 7.8 0.00 0.00 0.00 48 1010.2
20260507195057 54 295 1.7 5.2 0.00 0.00 0.00 46 1010.1
20260507194556 54 345 2.6 7.8 0.00 0.00 0.00 45 1010.2
20260507194056 54 351 2.6 7.8 0.00 0.00 0.00 46 1010.2
20260507193557 55 288 1.7 6.1 0.00 0.00 0.00 47 1010.2
20260507193059 55 347 2.6 7.0 0.00 0.00 0.00 49 1010.2
20260507192556 55 328 1.7 7.0 0.00 0.00 0.00 50 1010.2
20260507192056 55 325 3.5 7.0 0.00 0.00 0.00 50 1010.3
20260507191558 55 344 1.7 7.0 0.00 0.00 0.00 46 1010.2
20260507191056 55 330 1.7 4.3 0.00 0.00 0.00 47 1010.2
20260507190556 54 302 2.6 4.3 0.00 0.00 0.00 46 1010.3
20260507190057 54 302 1.7 9.6 0.00 0.00 0.00 47 1010.2
20260507185556 54 340 2.6 9.6 0.00 0.01 0.00 48 1010.4
20260507185055 54 290 2.6 6.1 0.00 0.01 0.00 47 1010.4
20260507184554 55 323 2.6 7.0 0.00 0.01 0.00 46 1010.5
20260507184057 55 348 1.7 11.3 0.00 0.01 0.00 47 1010.4
20260507183558 55 6 1.7 11.3 0.00 0.01 0.00 47 1010.5
20260507183058 55 297 3.5 7.0 0.00 0.01 0.00 47 1010.6
20260507182556 55 320 2.6 5.2 0.00 0.01 0.00 48 1010.6
20260507182057 54 343 1.7 5.2 0.00 0.01 0.00 45 1010.7
20260507181554 54 310 2.6 20.0 0.00 0.01 0.00 45 1010.8
20260507181055 55 12 3.5 20.0 0.00 0.01 0.00 46 1010.8
20260507180555 54 217 4.3 7.8 0.00 0.01 0.00 48 1010.7
20260507180104 54 193 3.5 7.8 0.00 0.01 0.00 49 1010.8
20260507175556 53 288 3.5 7.8 0.00 0.01 0.00 53 1010.8
20260507175054 53 247 0.9 6.1 0.00 0.01 0.00 51 1010.8
20260507174622 53 277 1.7 7.8 0.00 0.01 0.00 50 1010.8
20260507174056 53 279 3.5 7.8 0.00 0.01 0.00 54 1010.8
20260507173556 53 268 2.6 8.7 0.00 0.01 0.00 54 1011.0
20260507173055 53 259 4.3 8.7 0.00 0.01 0.00 55 1011.0
20260507172556 53 0 0.0 7.0 0.00 0.01 0.00 52 1011.1
20260507172057 53 293 0.9 7.0 0.00 0.01 0.00 53 1011.1
20260507171610 52 293 4.3 7.0 0.00 0.01 0.00 53 1011.2
20260507171056 52 287 2.6 10.4 0.00 0.01 0.00 56 1011.2
20260507170556 52 281 2.6 10.4 0.00 0.01 0.00 60 1011.3
20260507170057 51 252 2.6 7.0 0.00 0.01 0.00 60 1011.3
20260507165559 51 214 2.6 7.0 0.00 0.01 0.00 61 1011.3
20260507165054 50 236 2.6 7.8 0.00 0.01 0.00 60 1011.4
20260507164556 51 298 3.5 7.8 0.00 0.01 0.00 55 1011.4
20260507164054 51 301 2.6 7.0 0.00 0.01 0.00 54 1011.4
20260507163555 51 287 2.6 8.7 0.00 0.01 0.00 57 1011.5
20260507163054 51 283 4.3 8.7 0.00 0.01 0.00 61 1011.5
20260507162557 51 293 1.7 7.0 0.00 0.01 0.00 60 1011.6
20260507162059 51 302 3.5 7.0 0.00 0.01 0.00 57 1011.7
20260507161558 51 222 0.9 6.1 0.00 0.01 0.00 59 1011.7
20260507161056 50 274 2.6 6.1 0.00 0.01 0.00 55 1011.8
20260507160554 50 263 2.6 5.2 0.00 0.01 0.00 58 1011.7
20260507160117 50 163 2.6 5.2 0.00 0.01 0.00 58 1011.9
20260507155558 50 289 2.6 6.1 0.00 0.01 0.00 58 1011.9
20260507155100 50 277 1.7 7.0 0.00 0.01 0.00 60 1012.0
20260507154554 50 212 1.7 7.0 0.00 0.01 0.00 56 1012.0
20260507154053 49 0 0.9 4.3 0.00 0.01 0.00 55 1012.0
20260507153559 49 194 1.7 5.2 0.00 0.01 0.00 56 1012.1
20260507153056 49 243 1.7 7.0 0.00 0.01 0.00 58 1012.2
20260507152600 49 219 0.9 7.0 0.00 0.01 0.00 57 1012.2
20260507152059 48 284 2.6 6.1 0.00 0.01 0.00 60 1012.2
20260507151559 48 283 0.9 5.2 0.00 0.01 0.00 57 1012.3
20260507151056 48 0 0.0 4.3 0.00 0.01 0.00 58 1012.3
20260507150555 47 290 0.9 4.3 0.00 0.01 0.00 59 1012.2
20260507150057 47 278 1.7 4.3 0.00 0.01 0.00 58 1012.3
20260507145555 46 0 1.7 3.5 0.00 0.01 0.00 59 1012.4
20260507145055 46 0 0.0 4.3 0.00 0.01 0.00 59 1012.5
20260507144557 45 336 0.0 4.3 0.00 0.01 0.00 63 1012.6
20260507144054 45 293 2.6 4.3 0.00 0.01 0.00 58 1012.5
20260507143554 44 319 0.9 4.3 0.00 0.01 0.00 59 1012.7
20260507143116 44 328 0.9 3.5 0.00 0.01 0.00 60 1012.6
20260507142558 44 328 0.0 4.3 0.00 0.01 0.00 62 1012.7
20260507142054 44 337 0.9 4.3 0.00 0.01 0.00 59 1012.7
20260507141626 44 338 1.7 4.3 0.00 0.01 0.00 59 1012.9
20260507141054 44 339 0.9 3.5 0.00 0.01 0.00 62 1012.8
20260507140554 45 0 0.9 3.5 0.00 0.01 0.00 61 1012.7
20260507140111 45 338 0.9 5.2 0.00 0.01 0.00 62 1012.7
20260507135554 45 331 1.7 5.2 0.00 0.04 0.00 62 1012.7
20260507135057 44 297 1.7 5.2 0.00 0.04 0.00 61 1012.7
20260507134600 44 348 0.0 2.6 0.00 0.04 0.00 63 1012.8
20260507134054 44 340 0.9 7.0 0.00 0.04 0.00 61 1012.7
20260507133555 44 344 1.7 7.0 0.00 0.04 0.00 61 1012.9
20260507133105 44 318 0.9 4.3 0.00 0.04 0.00 65 1013.0
20260507132554 44 0 0.9 7.8 0.00 0.04 0.00 67 1012.7
20260507132054 44 0 1.7 7.8 0.00 0.04 0.00 66 1012.8
20260507131619 44 345 1.7 7.8 0.00 0.04 0.00 64 1012.6
20260507131054 44 341 1.7 5.2 0.00 0.04 0.00 63 1012.6
20260507130554 44 321 1.7 5.2 0.00 0.04 0.00 62 1012.5
20260507130106 44 298 2.6 5.2 0.00 0.04 0.00 64 1012.5
20260507125554 44 354 1.7 6.1 0.00 0.12 0.00 66 1012.4
20260507125054 44 334 2.6 7.0 0.00 0.12 0.00 67 1012.4
20260507124603 43 321 2.6 7.0 0.00 0.12 0.00 65 1012.4
20260507124054 43 339 1.7 6.1 0.00 0.12 0.00 65 1012.4
20260507123554 43 318 1.7 6.1 0.00 0.12 0.00 66 1012.5
20260507123103 43 325 2.6 6.1 0.00 0.12 0.00 70 1012.6
20260507122553 43 302 2.6 5.2 0.00 0.12 0.00 74 1012.7
20260507122057 42 296 2.6 5.2 0.00 0.12 0.00 75 1012.8
20260507121557 42 302 1.7 5.2 0.00 0.12 0.00 77 1012.5
20260507121055 42 281 1.7 4.3 0.00 0.12 0.00 78 1012.5
20260507120555 41 274 2.6 4.3 0.00 0.12 0.00 78 1012.5
20260507120055 41 304 1.7 2.6 0.00 0.12 0.00 82 1012.5
20260507115557 40 288 0.0 1.7 0.00 0.18 0.00 83 1012.4
20260507115057 40 286 0.0 1.7 0.00 0.18 0.00 84 1012.4
20260507114555 40 310 0.0 1.7 0.00 0.18 0.00 84 1012.3
20260507114056 40 0 0.0 2.6 0.00 0.18 0.00 85 1012.4
20260507113559 40 0 0.9 2.6 0.00 0.18 0.00 85 1012.4
20260507113128 40 251 0.9 2.6 0.00 0.18 0.00 86 1012.3
20260507112554 39 297 1.7 3.5 0.00 0.18 0.00 87 1012.3
20260507112059 39 269 1.7 3.5 0.00 0.18 0.00 88 1012.4
20260507111555 38 282 1.7 3.5 0.00 0.18 0.00 89 1012.5
20260507111056 38 273 0.9 1.7 0.00 0.18 0.00 90 1012.4
20260507110556 37 283 0.0 1.7 0.00 0.18 0.00 91 1012.3
20260507110054 36 0 0.0 1.7 0.00 0.18 0.00 91 1012.3
20260507105557 36 0 0.0 0.0 0.00 0.30 0.00 90 1012.2
20260507105055 35 0 0.0 0.0 0.00 0.30 0.00 89 1012.3
20260507104616 35 0 0.0 0.0 0.00 0.30 0.00 89 1012.2
20260507104057 34 0 0.0 0.0 0.00 0.30 0.00 89 1012.0
20260507103557 34 0 0.0 0.0 0.00 0.30 0.00 88 1012.0
20260507103059 33 0 0.0 0.0 0.00 0.30 0.00 87 1012.0
20260507102556 33 0 0.0 0.0 0.00 0.30 0.00 86 1011.9
20260507102057 33 0 0.0 0.0 0.00 0.30 0.00 86 1011.8
20260507101556 34 0 0.0 0.0 0.00 0.30 0.00 85 1011.9
20260507101057 34 0 0.0 0.0 0.00 0.30 0.00 85 1011.7
20260507100556 34 0 0.0 0.0 0.00 0.30 0.00 85 1011.7
20260507100101 34 0 0.0 0.0 0.00 0.30 0.00 84 1011.8
20260507095557 35 0 0.0 0.0 0.00 0.34 0.00 84 1011.9
20260507095056 35 0 0.0 0.0 0.00 0.34 0.00 84 1011.9
20260507094611 35 0 0.0 0.0 0.00 0.34 0.00 85 1011.9
20260507094057 35 0 0.0 0.0 0.00 0.34 0.00 86 1011.9
20260507093557 35 0 0.0 0.0 0.00 0.34 0.00 86 1012.1
20260507093056 35 0 0.0 0.0 0.00 0.34 0.00 84 1012.1
20260507092557 35 0 0.0 0.0 0.00 0.34 0.00 83 1012.0
20260507092058 35 0 0.0 0.0 0.00 0.34 0.00 83 1012.1
20260507091600 36 0 0.0 0.0 0.00 0.34 0.00 82 1012.0
20260507091059 36 0 0.0 0.0 0.00 0.34 0.00 82 1012.0
20260507090601 36 0 0.0 0.0 0.00 0.34 0.00 80 1011.8
20260507090100 37 0 0.0 0.0 0.00 0.34 0.00 79 1011.7
20260507085554 37 0 0.0 0.0 0.00 0.40 0.00 79 1011.9
20260507085055 37 0 0.0 0.0 0.00 0.40 0.00 78 1012.0
20260507084602 38 0 0.0 0.0 0.00 0.40 0.00 77 1012.0
20260507084054 38 0 0.0 0.0 0.00 0.40 0.00 76 1011.9
20260507083557 38 0 0.0 0.0 0.00 0.40 0.00 75 1012.0
20260507083100 39 0 0.0 1.7 0.00 0.40 0.00 74 1012.0
20260507082557 39 0 0.0 1.7 0.00 0.40 0.00 72 1012.0
20260507082056 39 0 0.0 2.6 0.00 0.40 0.00 72 1012.2
20260507081554 39 298 0.9 5.2 0.00 0.40 0.00 72 1012.2
20260507081100 40 296 1.7 5.2 0.00 0.40 0.00 72 1012.2
20260507080553 40 297 0.9 2.6 0.00 0.40 0.00 72 1012.3
20260507075557 40 311 1.7 4.3 0.00 0.48 0.00 72 1012.2
20260507075054 40 300 1.7 4.3 0.00 0.48 0.00 73 1012.2
20260507074600 40 306 0.0 3.5 0.00 0.48 0.00 73 1012.1
20260507074053 40 343 0.9 3.5 0.00 0.48 0.00 74 1012.0
20260507073554 40 297 0.9 3.5 0.00 0.48 0.00 74 1012.0
20260507073058 41 329 0.0 3.5 0.00 0.48 0.00 74 1012.0
20260507072555 41 292 0.9 3.5 0.00 0.48 0.00 74 1012.1
20260507072058 41 293 1.7 3.5 0.00 0.48 0.00 75 1012.1
20260507071556 41 355 0.0 0.9 0.00 0.48 0.00 75 1012.0
20260507071054 41 290 0.0 2.6 0.00 0.48 0.00 75 1011.9
20260507070555 41 284 0.9 2.6 0.00 0.48 0.00 75 1011.8
20260507070106 41 295 0.0 1.7 0.00 0.48 0.00 75 1011.9
20260507065554 41 0 0.0 3.5 0.00 0.52 0.00 76 1011.8
20260507065056 41 289 0.9 3.5 0.00 0.52 0.00 75 1011.7
20260507064602 42 280 1.7 3.5 0.00 0.52 0.00 74 1011.7
20260507064055 42 309 0.9 1.7 0.00 0.52 0.00 74 1011.7
20260507063554 42 284 0.9 1.7 0.00 0.52 0.00 74 1011.8
20260507063057 42 292 0.0 1.7 0.00 0.52 0.00 75 1011.9
20260507062557 42 297 0.9 1.7 0.00 0.52 0.00 75 1011.9
20260507062057 42 0 0.0 1.7 0.00 0.52 0.00 75 1011.9
20260507061557 42 295 0.0 1.7 0.00 0.52 0.00 75 1012.0
20260507061057 42 305 0.0 2.6 0.00 0.52 0.00 74 1012.0
20260507060553 42 0 0.9 2.6 0.00 0.52 0.00 75 1012.0